﻿_id,Date,SR,Rain
1,2013-02-01T00:00:00,1.006122449,0
2,2013-02-02T00:00:00,0.97755102,0
3,2013-02-03T00:00:00,0.991836735,0
4,2013-02-04T00:00:00,1.006122449,0
5,2013-02-05T00:00:00,1.006122449,0
6,2013-02-06T00:00:00,1.006122449,0
7,2013-02-07T00:00:00,1.006122449,0.61
8,2013-02-08T00:00:00,,1.6
9,2013-02-09T00:00:00,0.995847695,0
10,2013-02-10T00:00:00,0.995838514,0
11,2013-02-11T00:00:00,0.995838514,0
12,2013-02-12T00:00:00,0.995838514,0
13,2013-02-13T00:00:00,0.995847695,0
14,2013-02-14T00:00:00,1.006122449,0
15,2013-02-15T00:00:00,1.006122449,0
16,2013-02-16T00:00:00,1.006122449,0
17,2013-02-17T00:00:00,1.006122449,0
18,2013-02-18T00:00:00,1.006122449,0
19,2013-02-19T00:00:00,,3.75
20,2013-02-20T00:00:00,,0
21,2013-02-21T00:00:00,1.006122449,0
22,2013-02-22T00:00:00,1.006215209,0
23,2013-02-23T00:00:00,1.006122449,0
24,2013-02-24T00:00:00,1.006122449,0
25,2013-02-25T00:00:00,1.006122449,0
26,2013-02-26T00:00:00,1.006122449,0
27,2013-02-27T00:00:00,1.006122449,0
28,2013-02-28T00:00:00,1.001293248,0
29,2013-03-01T00:00:00,1.006122449,0
30,2013-03-02T00:00:00,1.001293248,0
31,2013-03-03T00:00:00,1.006122449,0
32,2013-03-04T00:00:00,1.006122449,0
33,2013-03-05T00:00:00,1.006122449,0
34,2013-03-06T00:00:00,1.006122449,0
35,2013-03-07T00:00:00,1.006122449,3.7
36,2013-03-08T00:00:00,,4.19
37,2013-03-09T00:00:00,,0.03
38,2013-03-10T00:00:00,1.015788322,0
39,2013-03-11T00:00:00,0.996817285,0
40,2013-03-12T00:00:00,1.001469867,0
41,2013-03-13T00:00:00,0.996651575,0
42,2013-03-14T00:00:00,1.001387012,0
43,2013-03-15T00:00:00,0.996651575,0
44,2013-03-16T00:00:00,0.996244319,0
45,2013-03-17T00:00:00,0.987076584,0
46,2013-03-18T00:00:00,0.985914343,0
47,2013-03-19T00:00:00,0.985914343,0
48,2013-03-20T00:00:00,0.985714286,0
49,2013-03-21T00:00:00,,0
50,2013-03-22T00:00:00,0.985714286,0
51,2013-03-23T00:00:00,0.984485387,0
52,2013-03-24T00:00:00,0.981469942,0
53,2013-03-25T00:00:00,0.987069193,0
54,2013-03-26T00:00:00,0.985777424,0
55,2013-03-27T00:00:00,0.987254524,0
56,2013-03-28T00:00:00,0.982740094,0
57,2013-03-29T00:00:00,0.987254524,0
58,2013-03-30T00:00:00,0.987254524,0
59,2013-03-31T00:00:00,,3.41
60,2013-04-01T00:00:00,0.991485903,0
61,2013-04-02T00:00:00,0.992646592,0
62,2013-04-03T00:00:00,0.99552284,0
63,2013-04-04T00:00:00,0.99552284,0
64,2013-04-05T00:00:00,,0
65,2013-04-06T00:00:00,0.99632084,0
66,2013-04-07T00:00:00,0.99632084,0
67,2013-04-08T00:00:00,,0.69
68,2013-04-09T00:00:00,1.006122449,0
69,2013-04-10T00:00:00,0.997297886,0
70,2013-04-11T00:00:00,0.99713119,0
71,2013-04-12T00:00:00,0.996937709,0
72,2013-04-13T00:00:00,0.996951101,0
73,2013-04-14T00:00:00,0.996937709,0
74,2013-04-15T00:00:00,0.988101214,0
75,2013-04-16T00:00:00,0.988101179,0
76,2013-04-17T00:00:00,0.98760393,0
77,2013-04-18T00:00:00,0.987427628,0
78,2013-04-19T00:00:00,0.983759328,0
79,2013-04-20T00:00:00,0.983759328,0
80,2013-04-21T00:00:00,0.978792377,0
81,2013-04-22T00:00:00,0.978787181,0
82,2013-04-23T00:00:00,0.978759572,0
83,2013-04-24T00:00:00,0.978492184,0
84,2013-04-25T00:00:00,0.977645406,0
85,2013-04-26T00:00:00,0.970505205,0
86,2013-04-27T00:00:00,0.970505205,0
87,2013-04-28T00:00:00,0.970505205,0
88,2013-04-29T00:00:00,0.96873138,0
89,2013-04-30T00:00:00,0.968731414,0
90,2013-05-01T00:00:00,0.969036497,0
91,2013-05-02T00:00:00,0.979151356,0
92,2013-05-03T00:00:00,0.97926372,0
93,2013-05-04T00:00:00,0.97926372,0
94,2013-05-05T00:00:00,0.987070605,0
95,2013-05-06T00:00:00,0.98742713,1.89
96,2013-05-07T00:00:00,,0
97,2013-05-08T00:00:00,1.006122449,0
98,2013-05-09T00:00:00,0.999733603,0
99,2013-05-10T00:00:00,0.98742713,0
100,2013-05-11T00:00:00,0.990385943,0
101,2013-05-12T00:00:00,0.991975061,0
102,2013-05-13T00:00:00,0.990605366,0
103,2013-05-14T00:00:00,0.98760393,0
104,2013-05-15T00:00:00,0.98760393,0
105,2013-05-16T00:00:00,0.98760393,0
106,2013-05-17T00:00:00,0.98760393,0
107,2013-05-18T00:00:00,0.98760393,0
108,2013-05-19T00:00:00,0.987427227,0
109,2013-05-20T00:00:00,0.987427109,0
110,2013-05-21T00:00:00,0.987254524,0
111,2013-05-22T00:00:00,0.978269871,0
112,2013-05-23T00:00:00,0.9762972,0
113,2013-05-24T00:00:00,0.9762972,0
114,2013-05-25T00:00:00,0.9762972,0
115,2013-05-26T00:00:00,0.9762972,0
116,2013-05-27T00:00:00,0.978269871,0
117,2013-05-28T00:00:00,,0
118,2013-05-29T00:00:00,0.983158051,0
119,2013-05-30T00:00:00,0.986701112,0
120,2013-05-31T00:00:00,0.986701112,0
121,2013-06-01T00:00:00,0.986701112,0
122,2013-06-02T00:00:00,0.986701112,0
123,2013-06-03T00:00:00,0.986701112,0
124,2013-06-04T00:00:00,0.986701112,0
125,2013-06-05T00:00:00,0.986701112,0
126,2013-06-06T00:00:00,0.986700914,0
127,2013-06-07T00:00:00,0.986700847,0
128,2013-06-08T00:00:00,0.986700847,0
129,2013-06-09T00:00:00,0.986514606,0
130,2013-06-10T00:00:00,0.986514606,0
131,2013-06-11T00:00:00,0.978262577,0
132,2013-06-12T00:00:00,0.978262577,0
133,2013-06-13T00:00:00,0.978243875,0
134,2013-06-14T00:00:00,0.969085412,0
135,2013-06-15T00:00:00,0.968732101,0
136,2013-06-16T00:00:00,0.968029204,0
137,2013-06-17T00:00:00,0.968029204,0
138,2013-06-18T00:00:00,0.968020702,0
139,2013-06-19T00:00:00,0.967291065,0
140,2013-06-20T00:00:00,0.959565055,0
141,2013-06-21T00:00:00,0.959563784,0
142,2013-06-22T00:00:00,0.959544136,0
143,2013-06-23T00:00:00,0.957753936,0
144,2013-06-24T00:00:00,0.954775124,0
145,2013-06-25T00:00:00,0.949843879,0
146,2013-06-26T00:00:00,0.948430141,0
147,2013-06-27T00:00:00,0.948430141,0
148,2013-06-28T00:00:00,,0
149,2013-06-29T00:00:00,,0
150,2013-06-30T00:00:00,,0
151,2013-07-01T00:00:00,,0
152,2013-07-02T00:00:00,,0
153,2013-07-03T00:00:00,,0
154,2013-07-04T00:00:00,0.948430141,0
155,2013-07-05T00:00:00,0.946122449,0
156,2013-07-06T00:00:00,0.939630416,0
157,2013-07-07T00:00:00,0.939630416,0
158,2013-07-08T00:00:00,0.939603098,0
159,2013-07-09T00:00:00,0.930650751,0
160,2013-07-10T00:00:00,,0
161,2013-07-11T00:00:00,,0
162,2013-07-12T00:00:00,0.930650751,0
163,2013-07-13T00:00:00,0.930650751,0
164,2013-07-14T00:00:00,0.930650751,0
165,2013-07-15T00:00:00,0.930650751,0
166,2013-07-16T00:00:00,0.926823892,0
167,2013-07-17T00:00:00,0.925284811,0
168,2013-07-18T00:00:00,0.925284811,0
169,2013-07-19T00:00:00,0.922892233,0
170,2013-07-20T00:00:00,0.922142009,0
171,2013-07-21T00:00:00,0.92010369,0
172,2013-07-22T00:00:00,0.919685602,0
173,2013-07-23T00:00:00,0.918631076,0
174,2013-07-24T00:00:00,0.918631076,0
175,2013-07-25T00:00:00,0.918017828,0
176,2013-07-26T00:00:00,0.91680929,0
177,2013-07-27T00:00:00,0.909968603,0
178,2013-07-28T00:00:00,0.909968603,0
179,2013-07-29T00:00:00,0.909968603,0
180,2013-07-30T00:00:00,0.909968603,0
181,2013-07-31T00:00:00,0.904388894,0
182,2013-08-01T00:00:00,0.909968603,0
183,2013-08-02T00:00:00,0.909968603,0
184,2013-08-03T00:00:00,0.904388894,0
185,2013-08-04T00:00:00,0.904382057,0
186,2013-08-05T00:00:00,0.902182706,0
187,2013-08-06T00:00:00,0.89703154,0
188,2013-08-07T00:00:00,0.895011338,0
189,2013-08-08T00:00:00,0.895011338,0
190,2013-08-09T00:00:00,0.895011338,0
191,2013-08-10T00:00:00,0.892914902,0
192,2013-08-11T00:00:00,0.892914902,0
193,2013-08-12T00:00:00,0.884782446,0
194,2013-08-13T00:00:00,0.88247372,0
195,2013-08-14T00:00:00,0.88247372,0
196,2013-08-15T00:00:00,0.88247372,0
197,2013-08-16T00:00:00,0.884782446,0
198,2013-08-17T00:00:00,0.884782446,0
199,2013-08-18T00:00:00,,0
200,2013-08-19T00:00:00,0.889623834,0
201,2013-08-20T00:00:00,0.893949827,0
202,2013-08-21T00:00:00,0.893949827,0
203,2013-08-22T00:00:00,0.893949827,0
204,2013-08-23T00:00:00,0.893949827,0
205,2013-08-24T00:00:00,0.893949827,0
206,2013-08-25T00:00:00,0.893949827,0
207,2013-08-26T00:00:00,0.891815385,0
208,2013-08-27T00:00:00,0.890737834,0
209,2013-08-28T00:00:00,0.88847539,0
210,2013-08-29T00:00:00,0.887284911,0
211,2013-08-30T00:00:00,0.88728472,0
212,2013-08-31T00:00:00,0.88707483,0
213,2013-09-01T00:00:00,0.883213581,0
214,2013-09-02T00:00:00,0.882479185,0
215,2013-09-03T00:00:00,0.881546585,0
216,2013-09-04T00:00:00,0.878895091,0
217,2013-09-05T00:00:00,0.872758995,0
218,2013-09-06T00:00:00,0.870172647,0
219,2013-09-07T00:00:00,0.864417256,0
220,2013-09-08T00:00:00,0.863445177,0
221,2013-09-09T00:00:00,0.862085501,0
222,2013-09-10T00:00:00,0.854802147,0
223,2013-09-11T00:00:00,0.850747341,0
224,2013-09-12T00:00:00,0.850747341,0
225,2013-09-13T00:00:00,0.850743773,0
226,2013-09-14T00:00:00,0.847673912,0
227,2013-09-15T00:00:00,0.847666609,0
228,2013-09-16T00:00:00,0.847666609,0
229,2013-09-17T00:00:00,0.847673912,0
230,2013-09-18T00:00:00,0.847673912,0
231,2013-09-19T00:00:00,0.850391535,0
232,2013-09-20T00:00:00,0.850391535,0
233,2013-09-21T00:00:00,0.847666609,0.01
234,2013-09-22T00:00:00,0.842435456,0
235,2013-09-23T00:00:00,0.840739132,0
236,2013-09-24T00:00:00,0.840739132,0
237,2013-09-25T00:00:00,0.840739132,0
238,2013-09-26T00:00:00,0.840739132,0
239,2013-09-27T00:00:00,0.840739132,0
240,2013-09-28T00:00:00,0.840718525,0
241,2013-09-29T00:00:00,0.831323071,0
242,2013-09-30T00:00:00,0.827854469,0
243,2013-10-01T00:00:00,0.824246797,0
244,2013-10-02T00:00:00,0.820284682,0
245,2013-10-03T00:00:00,0.817854051,0
246,2013-10-04T00:00:00,0.817087379,0
247,2013-10-05T00:00:00,0.823642214,0
248,2013-10-06T00:00:00,0.82363651,0
249,2013-10-07T00:00:00,0.823642214,0
250,2013-10-08T00:00:00,0.823642214,0
251,2013-10-09T00:00:00,,0.65
252,2013-10-10T00:00:00,1.006122449,0
253,2013-10-11T00:00:00,1.017147239,0
254,2013-10-12T00:00:00,0.991212377,0
255,2013-10-13T00:00:00,0.965277152,0
256,2013-10-14T00:00:00,0.965074699,0
257,2013-10-15T00:00:00,0.965277152,0
258,2013-10-16T00:00:00,0.964872246,0
259,2013-10-17T00:00:00,0.956423813,0
260,2013-10-18T00:00:00,0.956423813,0
261,2013-10-19T00:00:00,0.955395454,0
262,2013-10-20T00:00:00,0.954203834,0
263,2013-10-21T00:00:00,0.948959461,0
264,2013-10-22T00:00:00,0.954203834,0
265,2013-10-23T00:00:00,0.954890648,0
266,2013-10-24T00:00:00,0.930319669,0
267,2013-10-25T00:00:00,0.927099406,0
268,2013-10-26T00:00:00,0.952420363,0
269,2013-10-27T00:00:00,0.952420363,0
270,2013-10-28T00:00:00,,1.09
271,2013-10-29T00:00:00,1.006122449,0
272,2013-10-30T00:00:00,0.995616203,0
273,2013-10-31T00:00:00,0.995629395,0
274,2013-11-01T00:00:00,,0
275,2013-11-02T00:00:00,,0
276,2013-11-03T00:00:00,,0
277,2013-11-04T00:00:00,,0
278,2013-11-05T00:00:00,,0
279,2013-11-06T00:00:00,,0
280,2013-11-07T00:00:00,,0
281,2013-11-08T00:00:00,,0
282,2013-11-09T00:00:00,,0
283,2013-11-10T00:00:00,,0
284,2013-11-11T00:00:00,,0
285,2013-11-12T00:00:00,,0
286,2013-11-13T00:00:00,,0
287,2013-11-14T00:00:00,,0
288,2013-11-15T00:00:00,,0
289,2013-11-16T00:00:00,,0
290,2013-11-17T00:00:00,,0
291,2013-11-18T00:00:00,,0
292,2013-11-19T00:00:00,,0
293,2013-11-20T00:00:00,,2.23
294,2013-11-21T00:00:00,,24.71
295,2013-11-22T00:00:00,,0.47
296,2013-11-23T00:00:00,,0
297,2013-11-24T00:00:00,,0
298,2013-11-25T00:00:00,,0
299,2013-11-26T00:00:00,,0
300,2013-11-27T00:00:00,,0
301,2013-11-28T00:00:00,,0
302,2013-11-29T00:00:00,,0
303,2013-11-30T00:00:00,,0
304,2013-12-01T00:00:00,,0
305,2013-12-02T00:00:00,,0
306,2013-12-03T00:00:00,,0
307,2013-12-04T00:00:00,,0
308,2013-12-05T00:00:00,,0
309,2013-12-06T00:00:00,,3.25
310,2013-12-07T00:00:00,,3.7
311,2013-12-08T00:00:00,,0
312,2013-12-09T00:00:00,,0
313,2013-12-10T00:00:00,,0
314,2013-12-11T00:00:00,,0
315,2013-12-12T00:00:00,,0
316,2013-12-13T00:00:00,,0
317,2013-12-14T00:00:00,,0
318,2013-12-15T00:00:00,,0
319,2013-12-16T00:00:00,,0
320,2013-12-17T00:00:00,,0
321,2013-12-18T00:00:00,,0
322,2013-12-19T00:00:00,,0
323,2013-12-20T00:00:00,,0
324,2013-12-21T00:00:00,,0
325,2013-12-22T00:00:00,,0
326,2013-12-23T00:00:00,,0
327,2013-12-24T00:00:00,,0
328,2013-12-25T00:00:00,,0
329,2013-12-26T00:00:00,,0
330,2013-12-27T00:00:00,,0
331,2013-12-28T00:00:00,,0
332,2013-12-29T00:00:00,,0
333,2013-12-30T00:00:00,,0
334,2013-12-31T00:00:00,,0
335,2014-01-01T00:00:00,,0
336,2014-01-02T00:00:00,,0
337,2014-01-03T00:00:00,,0
338,2014-01-04T00:00:00,,0
339,2014-01-05T00:00:00,,0
340,2014-01-06T00:00:00,,0
341,2014-01-07T00:00:00,,0
342,2014-01-08T00:00:00,,0
343,2014-01-09T00:00:00,,0
344,2014-01-10T00:00:00,,0
345,2014-01-11T00:00:00,,0
346,2014-01-12T00:00:00,,0
347,2014-01-13T00:00:00,,0
348,2014-01-14T00:00:00,,0
349,2014-01-15T00:00:00,,0
350,2014-01-16T00:00:00,,0
351,2014-01-17T00:00:00,,0
352,2014-01-18T00:00:00,,0
353,2014-01-19T00:00:00,,0
354,2014-01-20T00:00:00,,0
355,2014-01-21T00:00:00,,0
356,2014-01-22T00:00:00,,0
357,2014-01-23T00:00:00,,0
358,2014-01-24T00:00:00,,0
359,2014-01-25T00:00:00,,0
360,2014-01-26T00:00:00,,0
361,2014-01-27T00:00:00,,0
362,2014-01-28T00:00:00,,0
363,2014-01-29T00:00:00,,0
364,2014-01-30T00:00:00,,3.21
365,2014-01-31T00:00:00,,0.2
366,2014-02-01T00:00:00,0.995642587,0
367,2014-02-02T00:00:00,,1.47
368,2014-02-03T00:00:00,0.995019064,0
369,2014-02-04T00:00:00,0.995019064,0
370,2014-02-05T00:00:00,0.995019064,0
371,2014-02-06T00:00:00,,3.06
372,2014-02-07T00:00:00,1.006122449,0
373,2014-02-08T00:00:00,1.006122449,0
374,2014-02-09T00:00:00,1.006122449,0
375,2014-02-10T00:00:00,0.995799849,0.02
376,2014-02-11T00:00:00,1.006122449,0
377,2014-02-12T00:00:00,1.006122449,0
378,2014-02-13T00:00:00,1.000592676,0
379,2014-02-14T00:00:00,0.995062903,0
380,2014-02-15T00:00:00,0.995213825,0
381,2014-02-16T00:00:00,0.985714286,0
382,2014-02-17T00:00:00,0.984142807,0
383,2014-02-18T00:00:00,0.983068869,0
384,2014-02-19T00:00:00,0.981287717,0
385,2014-02-20T00:00:00,0.984142807,0
386,2014-02-21T00:00:00,0.979251701,0
387,2014-02-22T00:00:00,0.975967209,0
388,2014-02-23T00:00:00,0.975315618,0
389,2014-02-24T00:00:00,0.984142807,0
390,2014-02-25T00:00:00,0.985714286,0
391,2014-02-26T00:00:00,0.991203059,1.32
392,2014-02-27T00:00:00,0.991203059,4.35
393,2014-02-28T00:00:00,1.003518776,7.25
394,2014-03-01T00:00:00,,0.36
395,2014-03-02T00:00:00,,0.54
396,2014-03-03T00:00:00,1.003518776,3.04
397,2014-03-04T00:00:00,,0
398,2014-03-05T00:00:00,1.003518776,0
399,2014-03-06T00:00:00,,0
400,2014-03-07T00:00:00,1.003518776,0
401,2014-03-08T00:00:00,1.003518776,0
402,2014-03-09T00:00:00,1.003518776,0
403,2014-03-10T00:00:00,1.003518776,0
404,2014-03-11T00:00:00,0.994141692,0
405,2014-03-12T00:00:00,0.994122711,0
406,2014-03-13T00:00:00,0.994122711,0
407,2014-03-14T00:00:00,0.993939373,0
408,2014-03-15T00:00:00,0.990165431,0
409,2014-03-16T00:00:00,0.984824883,0
410,2014-03-17T00:00:00,0.984824666,0
411,2014-03-18T00:00:00,0.984824548,0
412,2014-03-19T00:00:00,0.984824214,0
413,2014-03-20T00:00:00,0.987494822,0
414,2014-03-21T00:00:00,0.965034859,0
415,2014-03-22T00:00:00,0.975081384,0
416,2014-03-23T00:00:00,0.982642917,0
417,2014-03-24T00:00:00,0.982642917,0
418,2014-03-25T00:00:00,0.982642917,0.02
419,2014-03-26T00:00:00,,2.33
420,2014-03-27T00:00:00,0.993366901,0
421,2014-03-28T00:00:00,1.003518776,0
422,2014-03-29T00:00:00,1.003518776,10.32
423,2014-03-30T00:00:00,1.003518776,0.3
424,2014-03-31T00:00:00,1.003518776,7.7
425,2014-04-01T00:00:00,1.003518776,5.46
426,2014-04-02T00:00:00,1.003518776,0.11
427,2014-04-03T00:00:00,0.994526835,0
428,2014-04-04T00:00:00,0.993192248,0
429,2014-04-05T00:00:00,,0
430,2014-04-06T00:00:00,1.003518776,0
431,2014-04-07T00:00:00,1.003518776,0
432,2014-04-08T00:00:00,0.994391283,0
433,2014-04-09T00:00:00,0.994391283,0
434,2014-04-10T00:00:00,0.994391283,0
435,2014-04-11T00:00:00,0.994544726,0
436,2014-04-12T00:00:00,0.994391283,0
437,2014-04-13T00:00:00,0.991213241,0
438,2014-04-14T00:00:00,0.991213241,0
439,2014-04-15T00:00:00,0.985336958,0
440,2014-04-16T00:00:00,0.985000258,0
441,2014-04-17T00:00:00,0.984650852,0
442,2014-04-18T00:00:00,0.988791343,0
443,2014-04-19T00:00:00,0.983892942,0
444,2014-04-20T00:00:00,0.984682336,0
445,2014-04-21T00:00:00,0.982467076,0
446,2014-04-22T00:00:00,0.979434664,0
447,2014-04-23T00:00:00,0.983892942,0
448,2014-04-24T00:00:00,0.98482298,0
449,2014-04-25T00:00:00,0.98482298,9.86
450,2014-04-26T00:00:00,,0.04
451,2014-04-27T00:00:00,1.003518776,0
452,2014-04-28T00:00:00,1.003518776,0
453,2014-04-29T00:00:00,0.999018373,0
454,2014-04-30T00:00:00,1.012711812,0
455,2014-05-01T00:00:00,1.003614891,0
456,2014-05-02T00:00:00,1.003518776,0
457,2014-05-03T00:00:00,0.994517969,0
458,2014-05-04T00:00:00,0.994356652,0
459,2014-05-05T00:00:00,0.994236869,0
460,2014-05-06T00:00:00,0.994236869,0
461,2014-05-07T00:00:00,0.994224776,0
462,2014-05-08T00:00:00,0.994204983,0
463,2014-05-09T00:00:00,0.992526291,0
464,2014-05-10T00:00:00,0.985336958,0
465,2014-05-11T00:00:00,0.985336958,0
466,2014-05-12T00:00:00,0.985336958,0
467,2014-05-13T00:00:00,0.985000258,0
468,2014-05-14T00:00:00,0.985000258,0
469,2014-05-15T00:00:00,0.985000258,0
470,2014-05-16T00:00:00,0.984823515,0
471,2014-05-17T00:00:00,0.984273643,0
472,2014-05-18T00:00:00,0.983910829,0
473,2014-05-19T00:00:00,0.983910829,0
474,2014-05-20T00:00:00,0.983910829,0
475,2014-05-21T00:00:00,0.983910933,0
476,2014-05-22T00:00:00,0.983910829,0
477,2014-05-23T00:00:00,0.983910829,0
478,2014-05-24T00:00:00,0.983862691,0
479,2014-05-25T00:00:00,0.975733839,0
480,2014-05-26T00:00:00,0.975733839,0
481,2014-05-27T00:00:00,0.975733839,0
482,2014-05-28T00:00:00,0.975733839,0
483,2014-05-29T00:00:00,0.966481739,0
484,2014-05-30T00:00:00,0.966129141,0
485,2014-05-31T00:00:00,0.966128285,0
486,2014-06-01T00:00:00,0.966128285,0
487,2014-06-02T00:00:00,0.966128285,0
488,2014-06-03T00:00:00,0.966128285,0
489,2014-06-04T00:00:00,,0
490,2014-06-05T00:00:00,0.965416604,0
491,2014-06-06T00:00:00,0.965416604,0
492,2014-06-07T00:00:00,0.965416366,0
493,2014-06-08T00:00:00,0.96430309,0
494,2014-06-09T00:00:00,0.955302391,0
495,2014-06-10T00:00:00,0.955144037,0
496,2014-06-11T00:00:00,0.946915003,0
497,2014-06-12T00:00:00,0.946915003,0
498,2014-06-13T00:00:00,0.946915003,0
499,2014-06-14T00:00:00,0.946915003,0
500,2014-06-15T00:00:00,0.945826469,0
501,2014-06-16T00:00:00,0.946915003,0
502,2014-06-17T00:00:00,0.946915003,0
503,2014-06-18T00:00:00,0.946915003,0
504,2014-06-19T00:00:00,0.946915003,0
505,2014-06-20T00:00:00,0.946915003,0
506,2014-06-21T00:00:00,0.946915003,0
507,2014-06-22T00:00:00,0.947434278,0
508,2014-06-23T00:00:00,0.947434278,0
509,2014-06-24T00:00:00,0.947434278,0
510,2014-06-25T00:00:00,0.95603757,0
511,2014-06-26T00:00:00,0.95603757,0
512,2014-06-27T00:00:00,0.95603757,0
513,2014-06-28T00:00:00,0.947433342,0
514,2014-06-29T00:00:00,0.947433342,0
515,2014-06-30T00:00:00,0.947433342,0
516,2014-07-01T00:00:00,0.95513523,0
517,2014-07-02T00:00:00,0.95513523,0
518,2014-07-03T00:00:00,0.955016074,0
519,2014-07-04T00:00:00,0.947433342,0
520,2014-07-05T00:00:00,0.946915003,0
521,2014-07-06T00:00:00,0.946915003,0
522,2014-07-07T00:00:00,0.945826469,0
523,2014-07-08T00:00:00,0.945826469,0
524,2014-07-09T00:00:00,0.945826469,0
525,2014-07-10T00:00:00,0.945826469,0
526,2014-07-11T00:00:00,0.945826469,0
527,2014-07-12T00:00:00,0.945826469,0
528,2014-07-13T00:00:00,0.945826469,0
529,2014-07-14T00:00:00,0.945826469,0
530,2014-07-15T00:00:00,0.945826469,0
531,2014-07-16T00:00:00,0.945256759,0
532,2014-07-17T00:00:00,0.945256759,0
533,2014-07-18T00:00:00,0.944695247,0
534,2014-07-19T00:00:00,0.944098162,0
535,2014-07-20T00:00:00,0.944098162,0
536,2014-07-21T00:00:00,0.937000795,0
537,2014-07-22T00:00:00,0.936971482,0
538,2014-07-23T00:00:00,0.933464997,0
539,2014-07-24T00:00:00,0.928047078,0
540,2014-07-25T00:00:00,0.928047078,0
541,2014-07-26T00:00:00,0.923377566,0
542,2014-07-27T00:00:00,0.918634696,0
543,2014-07-28T00:00:00,,0
544,2014-07-29T00:00:00,0.920955009,0
545,2014-07-30T00:00:00,0.911123651,0
546,2014-07-31T00:00:00,0.918634696,0
547,2014-08-01T00:00:00,0.918634696,0
548,2014-08-02T00:00:00,0.920955009,0.03
549,2014-08-03T00:00:00,0.973948422,1.34
550,2014-08-04T00:00:00,0.984650852,0
551,2014-08-05T00:00:00,0.984288007,0
552,2014-08-06T00:00:00,0.983903392,0
553,2014-08-07T00:00:00,0.983110613,0
554,2014-08-08T00:00:00,0.978529518,0
555,2014-08-09T00:00:00,0.974493889,0
556,2014-08-10T00:00:00,0.973948422,0
557,2014-08-11T00:00:00,0.966481739,0
558,2014-08-12T00:00:00,0.965782927,0
559,2014-08-13T00:00:00,0.965415287,0
560,2014-08-14T00:00:00,0.9629661,0
561,2014-08-15T00:00:00,0.957789079,0
562,2014-08-16T00:00:00,0.956971244,0
563,2014-08-17T00:00:00,0.956971244,0
564,2014-08-18T00:00:00,0.956971244,0
565,2014-08-19T00:00:00,0.956939052,0
566,2014-08-20T00:00:00,0.956967932,0
567,2014-08-21T00:00:00,0.956544746,0
568,2014-08-22T00:00:00,0.956060076,0
569,2014-08-23T00:00:00,0.955561428,0
570,2014-08-24T00:00:00,0.955264566,0
571,2014-08-25T00:00:00,0.947963221,0
572,2014-08-26T00:00:00,0.947963221,0
573,2014-08-27T00:00:00,0.946915003,0
574,2014-08-28T00:00:00,0.946915003,0
575,2014-08-29T00:00:00,0.946915003,0
576,2014-08-30T00:00:00,0.938054723,0
577,2014-08-31T00:00:00,0.938054723,0
578,2014-09-01T00:00:00,0.937293969,0
579,2014-09-02T00:00:00,0.938054723,0
580,2014-09-03T00:00:00,0.937293969,0
581,2014-09-04T00:00:00,0.937293969,0
582,2014-09-05T00:00:00,0.937682403,0
583,2014-09-06T00:00:00,0.937293969,0
584,2014-09-07T00:00:00,0.937037781,0
585,2014-09-08T00:00:00,0.934714405,0
586,2014-09-09T00:00:00,0.934714405,0
587,2014-09-10T00:00:00,0.934714405,0
588,2014-09-11T00:00:00,0.933731197,0
589,2014-09-12T00:00:00,0.92755967,0
590,2014-09-13T00:00:00,0.927311387,0
591,2014-09-14T00:00:00,0.925832323,0
592,2014-09-15T00:00:00,0.925057041,0
593,2014-09-16T00:00:00,0.924291881,0
594,2014-09-17T00:00:00,0.92429055,0
595,2014-09-18T00:00:00,0.904486523,0
596,2014-09-19T00:00:00,0.904486071,0
597,2014-09-20T00:00:00,0.904483207,0
598,2014-09-21T00:00:00,0.902483336,0
599,2014-09-22T00:00:00,0.902483336,0
600,2014-09-23T00:00:00,0.902482991,0
601,2014-09-24T00:00:00,0.902482991,0
602,2014-09-25T00:00:00,0.902482991,0
603,2014-09-26T00:00:00,0.902479144,0
604,2014-09-27T00:00:00,0.900865152,0
605,2014-09-28T00:00:00,0.900400439,0
606,2014-09-29T00:00:00,0.900400439,0
607,2014-09-30T00:00:00,0.900400439,0
608,2014-10-01T00:00:00,0.886988212,0
609,2014-10-02T00:00:00,0.885801831,0
610,2014-10-03T00:00:00,0.876292102,0
611,2014-10-04T00:00:00,0.873746547,0
612,2014-10-05T00:00:00,0.871940139,0
613,2014-10-06T00:00:00,0.864865397,0
614,2014-10-07T00:00:00,0.862662756,0
615,2014-10-08T00:00:00,0.860563888,0
616,2014-10-09T00:00:00,0.860563888,0
617,2014-10-10T00:00:00,0.857590929,0
618,2014-10-11T00:00:00,0.857590929,0
619,2014-10-12T00:00:00,0.854001895,0
620,2014-10-13T00:00:00,0.853741001,0
621,2014-10-14T00:00:00,0.851212005,0
622,2014-10-15T00:00:00,0.850705353,0
623,2014-10-16T00:00:00,0.850705353,0
624,2014-10-17T00:00:00,0.847519988,0
625,2014-10-18T00:00:00,0.842467437,0
626,2014-10-19T00:00:00,0.84243709,0
627,2014-10-20T00:00:00,0.838852231,0
628,2014-10-21T00:00:00,0.835677804,0
629,2014-10-22T00:00:00,0.834489027,0
630,2014-10-23T00:00:00,0.833186927,0
631,2014-10-24T00:00:00,0.832307956,0
632,2014-10-25T00:00:00,0.834489027,0
633,2014-10-26T00:00:00,0.833837977,0
634,2014-10-27T00:00:00,0.829475874,0
635,2014-10-28T00:00:00,0.816298985,0
636,2014-10-29T00:00:00,0.816597186,0
637,2014-10-30T00:00:00,0.81328383,0
638,2014-10-31T00:00:00,,13.49
